Main page
METAR-TAF:

METAR-TAF

Airports :

Chan Gurney Municipal Airport

Yankton, South Dakota, United States

latitude: 42-55N, longitude: 097-23W, elevation: 1305 ft

Current weather observation

The report was made 1 hour and 9 minutes ago, at 22:56 UTC
Wind 5 mph from the Southwest
Temperature 66°F
Humidity 28%
Pressure 30.02 in. Hg
Visibility: 10 miles
Clear sky

METAR: KYKN 072256Z AUTO 23004KT 10SM CLR 19/00 A3002 RMK AO2 SLP176 T01940000

Time: 18:05 (00:05 UTC)


TAF: missing

Weather observations and forecasts of more than 4000 airports (METAR and TAF reports).

The available stations are represented by yellow and red dots on the map.

Hover mouse over dot to see the name of the station.

Then click to see weather observations and forecasts.

To change the map : click on the green buttons with a black cross to zoom in, on the green button with a dash to zoom out, or on the green arrows for adjacent maps.


METAR-TAF: